Location: *
(48.8500°S, 126.0167°E)
Time: 09:32:27
(UTC+00:00)

Daily predictions for brighter satellites

Satellite Brightness Start Highest point End
(mag) Time Altitude Azimuth Time Altitude Azimuth Time Altitude Azimuth
Cosmos 1151 Rocket 3.2 12:04:34 10° S 12:09:02 85° W 12:13:24 10° N
BREEZE M DEB (TANK) 3.2 12:06:29 10° W 12:09:45 89° S 12:20:15 10° E
USA 267 3.5 12:03:40 10° SE 12:10:19 81° SSW 12:16:56 10° WNW
SL-4 R/B 3.9 12:08:36 10° W 12:11:37 20° NW 12:14:39 10° N
SL-16 R/B 3.1 12:07:15 10° SSW 12:12:40 40° SE 12:18:01 10° ENE
ATLAS 3B R/B 3.2 12:06:43 10° SW 12:12:45 50° WNW 12:19:03 10° NNE
ARIANE 6 FM1 Upper Stage 2.8 12:09:56 10° NNW 12:14:21 69° NE 12:18:53 10° SE
Cosmos 1536 2.7 12:11:13 10° N 12:14:57 87° W 12:18:44 10° S
Cosmos 1908 2.5 12:17:22 10° N 12:20:20 77° E 12:23:22 10° SSE
Cosmos 2297 Rocket 2.4 12:14:42 10° NNW 12:20:24 84° WSW 12:26:09 10° SSE
Cosmos 1709 Rocket 4.1 12:16:37 10° N 12:22:49 71° E 12:29:11 10° SSE
Cosmos 1980 4.2 12:18:00 10° SW 12:23:37 59° WNW 12:29:09 10° N
CSL-04 Debris 4.2 12:18:33 10° SSE 12:23:59 63° ENE 12:29:20 10° N
Cosmos 1745 Rocket 4.1 12:20:45 10° N 12:26:55 84° W 12:33:16 10° S
SL-14 R/B 3.4 12:24:11 10° SSW 12:28:02 75° W 12:31:48 10° N
Meteor 2-9 Rocket 4.3 12:23:03 10° N 12:28:24 60° E 12:33:59 10° SSE
Helios 1A 3.4 12:24:56 10° N 12:28:54 58° WNW 12:32:55 10° SSW
Okean O Rocket 2.9 12:26:17 10° SE 12:29:58 25° E 12:33:28 11° NNE
CZ-4B R/B 3.6 12:25:49 10° SSE 12:30:57 43° E 12:36:02 10° N
ISS -3.2 12:27:51 10° NW 12:31:01 36° NNE 12:34:12 10° ESE
Okean-O 4.0 12:27:43 10° SE 12:31:14 22° E 12:34:29 11° NE
CZ-4B R/B 4.4 12:29:33 10° SE 12:32:20 18° E 12:34:50 11° NE
ATLAS 2AS CENTAUR R/B 4.3 12:28:46 10° WNW 12:35:31 42° SSW 12:42:29 10° SE
Cosmos 2219 4.3 12:31:32 10° NNE 12:36:12 26° ENE 12:40:53 10° SE
Cosmos 2237 Rocket 2.9 12:30:49 10° SW 12:36:22 51° WNW 12:41:53 10° N
Cosmos 1470 3.1 12:34:00 10° NNE 12:37:16 39° E 12:40:35 10° SSE
Cosmos 1271 Rocket 3.0 12:33:51 10° SSW 12:37:17 56° W 12:40:37 10° N
CZ-4B DEB 4.2 12:31:59 10° SSE 12:37:31 71° ENE 12:42:57 10° N
Resurs 01 Rocket 3.7 12:35:35 10° S 12:39:33 31° WSW 12:43:29 10° NW
Meteor 1-14 Rocket 4.3 12:34:55 10° N 12:40:29 87° WSW 12:46:10 10° SSE
ATLAS 5 CENTAUR R/B 4.1 12:38:20 10° SW 12:43:45 27° SSE 12:48:25 10° ESE
USA 234 3.9 12:41:57 10° NNE 12:48:05 44° NW 12:54:21 10° WSW
ADEOS 3.6 12:45:13 10° SSE 12:50:31 71° ENE 12:55:45 10° N
CZ-4 R/B 2.0 12:46:48 10° S 12:50:34 55° WSW 12:54:21 10° NNW
Terra 2.1 12:46:12 10° SSE 12:50:52 50° E 12:55:26 10° N
Feng Yun 1-1 Rocket 4.4 12:45:56 10° SSE 12:52:00 78° ENE 12:57:53 10° N
Meteor 1-11 Rocket 3.7 12:47:02 10° N 12:52:38 72° E 12:58:15 10° SSE
Cosmos 1420 Rocket 4.2 12:52:47 10° SSW 12:58:04 65° ESE 13:02:23 15° NE
Meteor 1-13 Rocket 4.4 12:52:37 10° SSW 12:58:35 88° WNW 13:03:58 12° N
Cosmos 724 4.2 12:54:02 10° NNW 12:59:43 65° ENE 13:05:31 10° SE
Cosmos 2263 Rocket 2.3 12:55:32 10° N 13:01:05 56° ENE 13:06:39 10° SE
USA 245 4.4 12:59:57 10° SE 13:02:41 20° E 13:03:52 17° ENE
USA 186 1.7 13:03:43 10° S 13:06:31 67° WSW 13:09:17 10° NNW
Cosmos 2154 Rocket 4.5 13:01:59 14° NNE 13:07:04 45° E 13:13:00 10° SSE
ERS-1 Rocket 2.9 13:02:09 10° SSE 13:07:16 77° ENE 13:12:18 10° N
CZ-2C R/B 2.2 13:07:07 10° SSE 13:10:15 64° ENE 13:12:29 17° N
Cosmos 2227 Rocket 2.4 13:05:44 10° NNW 13:11:26 77° WSW 13:17:12 10° SSE
GP-B 4.2 13:07:54 10° SSE 13:11:53 30° E 13:14:27 18° NE
Cosmos 1680 Rocket 4.0 13:08:14 14° N 13:12:33 43° ENE 13:17:37 10° SE
BREEZE-M DEB (TANK) 2.2 13:10:48 10° W 13:13:36 38° NNW 13:14:49 23° NE
USA 281 4.0 13:07:49 10° SE 13:13:39 32° ENE 13:17:56 16° NNE
Cosmos 1515 Rocket 3.7 13:11:25 10° S 13:15:51 62° ESE 13:18:50 20° NNE
Cosmos 1624 Rocket 4.3 13:13:00 10° SSW 13:18:14 57° ESE 13:22:02 18° NE
GRACE-FO 1 4.5 13:17:20 20° N 13:19:39 73° E 13:23:15 10° S
Helios 1B rocket 3.9 13:17:30 10° SE 13:19:53 16° E 13:20:49 15° ENE
GRACE-FO 2 4.5 13:17:45 20° N 13:20:04 74° E 13:23:40 10° S
USA 32 4.2 13:16:06 17° NNE 13:20:09 58° E 13:25:22 10° SSE
Cosmos 2181 Rocket 4.2 13:14:51 10° S 13:21:24 80° W 13:27:02 14° N
SPOT 5 4.3 13:17:04 10° S 13:22:04 43° WSW 13:27:06 10° NW
MOS 1 4.4 13:17:57 10° SSE 13:23:44 79° WSW 13:29:24 10° NNW
Cosmos 2074 Rocket 4.1 13:18:19 13° N 13:23:53 69° E 13:30:10 10° SSE
SPOT 3 Rocket 4.4 13:19:38 10° SSE 13:24:25 34° E 13:27:21 20° NNE
Nadezhda 3 Rocket 4.2 13:19:08 10° S 13:25:34 64° ESE 13:30:18 19° NNE
MetOp-B 4.3 13:20:27 10° SSE 13:25:54 77° WSW 13:31:19 10° NNW
CZ-4C R/B 3.2 13:17:36 10° NNW 13:26:13 57° ENE 13:33:24 10° SE
Spot 2 Rocket 3.6 13:21:27 10° SSE 13:26:36 61° ENE 13:30:34 17° N
IRS-1A Rocket 4.2 13:20:58 10° SSE 13:26:39 74° ENE 13:31:40 13° N
CRYOSAT 2 4.4 13:25:03 19° NNE 13:28:34 71° E 13:33:32 10° S
Cosmos 1975 4.0 13:25:22 10° NW 13:28:51 37° WSW 13:32:25 10° S
Okean 2 3.7 13:29:53 10° S 13:33:43 48° ESE 13:35:45 24° NE
Meteor 1-21 4.4 13:29:30 10° SSW 13:35:23 80° W 13:39:47 18° N
ATLAS CENTAUR R/B 1.2 13:33:08 10° NW 13:36:00 53° SW 13:38:55 10° SSE
Cosmos 1607 4.1 13:30:32 10° NW 13:36:58 86° SW 13:43:27 10° SE
Cosmos 1766 Rocket 4.5 13:34:00 10° NNW 13:38:13 47° WSW 13:42:29 10° S
CZ-4B R/B 3.6 13:35:03 10° SSE 13:40:25 73° ENE 13:44:29 17° N
Cosmos 1300 4.0 13:38:30 10° NW 13:40:53 25° WSW 13:43:18 10° SSW
Meteor 2-10 Rocket 4.3 13:39:28 21° NNE 13:42:43 41° E 13:48:08 10° SSE
SME Rocket 4.3 13:39:45 18° NNE 13:46:08 89° ESE 13:51:41 10° SSW
Cosmos 1805 Rocket 3.8 13:48:50 26° NNE 13:51:10 56° E 13:55:31 10° SSE
USA 267 4.4 13:46:40 10° ESE 13:52:57 47° S 13:59:13 10° W
CSL-04 DEB 4.2 13:52:27 10° SSE 13:56:22 81° ENE 13:58:29 26° N
SL-16 R/B 3.0 13:51:26 10° SW 13:56:48 41° WNW 14:00:29 19° NNW
Cosmos 2082 3.7 13:51:22 11° NNW 13:56:48 81° ENE 14:02:34 10° SSE
IRS-1C Rocket 4.2 13:54:17 10° SSE 13:59:34 61° E 14:02:44 24° N
Cosmos 2184 Rocket 4.2 13:54:21 13° NNW 13:59:56 71° W 14:06:15 10° S
Sich 1 3.1 14:00:54 22° NNW 14:03:36 72° W 14:07:52 10° S
CZ-2C R/B 4.4 14:00:20 16° ENE 14:04:20 37° ESE 14:09:39 10° S
CZ-2C R/B 4.4 14:01:51 21° NNW 14:04:32 45° W 14:08:54 10° SSW
Landsat 5 3.8 14:03:01 28° NE 14:05:10 61° ESE 14:09:26 10° S
Okean O Rocket 2.8 14:02:06 10° S 14:06:17 41° WSW 14:10:26 10° NW
CZ-4B R/B 3.8 14:02:40 10° S 14:06:23 44° WSW 14:09:40 13° NW
ISS -3.4 14:04:17 10° W 14:07:42 67° SSW 14:11:08 10° ESE
Okean-O 3.6 14:03:28 10° S 14:07:44 45° WSW 14:11:50 11° NW
NOSS 3-4 (A) 3.7 14:03:17 10° SW 14:10:47 80° SE 14:15:21 20° NE
NOSS 3-4 (C) 3.7 14:03:25 10° SW 14:10:57 79° SE 14:15:31 20° NE
Cosmos 1500 Rocket 3.6 14:08:49 26° N 14:11:18 89° E 14:15:51 10° S
Cosmos 2112 Rocket 4.1 14:06:52 14° NNW 14:11:32 79° WSW 14:16:58 10° SSE
Cosmos 2056 Rocket 4.0 14:08:14 10° SSW 14:13:30 53° WNW 14:16:32 24° N
Cosmos 1110 Rocket 4.1 14:12:15 10° SSW 14:17:35 72° ESE 14:20:32 27° NE
Cosmos 1867 3.8 14:14:20 10° NW 14:19:44 70° SW 14:25:10 10° SE
Cosmos 2219 3.8 14:14:16 10° NW 14:19:56 59° WSW 14:25:38 10° SSE
Cosmos 1943 3.3 14:14:43 10° SSW 14:20:25 69° WNW 14:23:29 28° N
Cosmos 2341 Rocket 4.3 14:17:21 25° NNE 14:21:02 58° E 14:27:16 10° SSE
ATLAS 5 CENTAUR R/B 2.2 14:21:22 10° SW 14:27:27 72° SE 14:30:39 23° NE
DELTA 2 DEB (DPAF) 4.5 14:26:06 29° NNW 14:27:35 43° W 14:31:17 10° SSW
Terra 3.9 14:24:15 10° S 14:28:06 24° WSW 14:31:54 10° WNW
Cosmos 1862 Rocket 3.9 14:24:43 10° S 14:29:03 55° ESE 14:30:50 32° NE
PSLV R/B 4.0 14:31:01 30° NNW 14:32:49 52° W 14:37:01 10° SSW
Cosmos 1408 Rocket 4.2 14:30:07 21° NW 14:32:49 49° WSW 14:37:04 10° S
Meteor 2-19 Rocket 4.4 14:29:53 10° S 14:36:05 87° WNW 14:39:31 28° N
Cosmos 1844 Rocket 2.7 14:35:52 27° N 14:39:02 68° ENE 14:44:42 10° SSE
Cosmos 1331 Rocket 4.0 14:35:05 10° SSW 14:40:28 82° WNW 14:43:03 31° NNE
CZ-4C R/B 3.7 14:39:46 32° NW 14:40:31 38° W 14:43:38 10° SSW
Ariane Rocket 3.3 14:39:57 10° S 14:45:03 63° WSW 14:48:22 21° NW
Cosmos 2263 Rocket 3.9 14:40:16 10° WNW 14:45:18 31° SW 14:50:21 10° SSE
Okean 3 4.3 14:41:50 10° SSW 14:45:39 38° W 14:47:16 26° NW
Cosmos 2228 Rocket 3.2 14:44:03 10° S 14:48:31 67° ESE 14:50:16 35° NNE
Cosmos 1953 3.6 14:48:05 23° ENE 14:48:51 24° E 14:51:58 10° SE
PSLV R/B 4.2 14:47:54 34° NE 14:49:18 55° ESE 14:53:12 10° S
Cosmos 1048 Rocket 4.1 14:46:35 24° NNW 14:49:52 83° WSW 14:55:14 10° SSE
Cosmos 1707 Rocket 3.5 14:47:19 10° S 14:51:49 90° NNW 14:53:30 38° N
Cosmos 1603 3.7 14:47:20 10° SSW 14:53:07 77° WNW 14:56:02 31° NNE
Helios 1B rocket 3.0 14:49:56 10° S 14:53:27 43° WSW 14:55:09 25° NW
Cosmos 2084 Rocket 4.1 14:49:34 10° WNW 14:53:41 53° SW 14:57:49 10° SE
Cosmos 1743 Rocket 4.3 14:53:52 24° NW 14:56:14 48° WSW 15:00:33 10° S
USA 281 3.6 14:51:58 10° SSE 14:58:31 62° WSW 15:04:48 11° NW
Cosmos 1833 Rocket 4.0 14:56:52 10° SSW 15:02:04 35° SE 15:07:14 10° ENE
Cosmos 2218 Rocket 4.1 15:00:35 27° NNW 15:04:23 84° W 15:10:54 10° S
Cosmos 1666 Rocket 3.6 15:07:34 36° NNW 15:09:23 77° W 15:13:57 10° S
CZ-4C R/B 3.7 15:06:36 10° WNW 15:14:53 52° SW 15:21:34 10° SE
Cosmos 1758 4.3 15:15:01 25° WNW 15:16:32 35° WSW 15:20:02 10° S
ARIANE 5 R/B 3.5 15:12:41 10° SSE 15:16:55 38° E 15:18:21 30° NE
SL-24 DEB 4.2 15:15:17 37° NNE 15:17:05 75° E 15:21:42 10° S
Meteor 1-22 Rocket 4.2 15:16:29 31° N 15:19:20 87° E 15:24:56 10° SSE
USA 276 3.5 15:21:15 23° E 15:21:15 23° E 15:22:33 10° ESE
Cosmos 1452 Rocket 3.9 15:16:14 10° SSW 15:21:20 49° WNW 15:23:25 32° NNW
Meteor 1-24 Rocket 3.8 15:16:00 10° SSW 15:22:00 90° W 15:24:52 32° N
IDEFIX/ARIANE 42P 3.7 15:21:36 15° NE 15:25:23 37° ESE 15:30:15 10° S
Cosmos 614 Rocket 3.9 15:22:59 32° NNW 15:25:27 88° WSW 15:30:42 10° SSE
Intercosmos 25 Rocket 3.9 15:23:00 10° S 15:26:30 53° E 15:28:25 30° NE
Meteor 2-14 Rocket 4.4 15:22:28 10° SSW 15:28:42 80° W 15:31:53 31° N
Meteor 2-15 4.4 15:26:36 30° N 15:29:49 82° E 15:36:04 10° SSE
BlueWalker 3 1.8 15:30:51 54° NNE 15:31:02 55° NNE 15:34:39 10° ESE
SeaSat 1 4.1 15:26:51 10° ENE 15:31:10 31° SE 15:35:31 10° SSW
Cosmos 44 Rocket 4.1 15:30:37 31° NNE 15:31:51 36° ENE 15:36:18 10° SE
Cosmos 1844 4.2 15:28:58 18° NW 15:33:04 58° WSW 15:38:45 10° SSE
USA 267 4.3 15:29:01 10° E 15:35:16 47° S 15:41:32 10° WSW
Cosmos 1992 Rocket 4.1 15:31:57 10° SSW 15:37:16 78° ESE 15:40:07 28° NNE
Cosmos 1703 Rocket 3.5 15:32:52 10° S 15:37:20 88° ESE 15:38:58 39° N
Cosmos 1633 Rocket 3.7 15:36:22 29° NW 15:38:13 47° WSW 15:42:29 10° S
Okean 1-7 4.0 15:35:07 10° SSW 15:39:02 35° W 15:40:22 28° NW
SAR-Lupe-2 4.3 15:35:33 10° S 15:39:03 45° WSW 15:40:15 32° WNW
PSLV R/B 3.4 15:36:24 10° S 15:39:08 48° WSW 15:39:16 48° W
RESURS DK-1 3.4 15:35:49 10° SSW 15:39:39 41° SE 15:42:21 17° ENE
Cosmos 1821 Rocket 4.2 15:37:51 27° NNW 15:41:26 65° WSW 15:47:38 10° S
TSX-5 4.4 15:39:29 10° SW 15:41:59 30° WNW 15:41:59 30° WNW
CZ-2C R/B 4.0 15:41:18 27° NNW 15:43:58 44° W 15:49:34 10° SSW
ISS -2.9 15:41:23 10° WSW 15:44:47 53° S 15:48:09 10° E
DELTA 2 R/B (1) 4.3 15:46:10 30° NNE 15:46:10 30° NNE 15:50:18 10° ENE
Cosmos 1727 Rocket 4.1 15:41:05 10° SSW 15:47:17 66° W 15:50:31 29° NNW
Cosmos 1934 Rocket 4.3 15:44:09 27° NNE 15:47:27 59° E 15:53:36 10° SSE
Cosmos 1328 4.2 15:44:47 10° SSW 15:48:20 43° W 15:49:03 38° NW
Meteor 2-5 Rocket 4.2 15:52:24 10° SSW 15:58:16 54° W 16:01:08 29° NNW
Cosmos 839 Rocket 4.0 15:52:34 10° SW 15:58:51 90° SE 16:03:57 16° NE
Cosmos 1470 Rocket 4.3 15:57:30 28° NW 15:59:19 43° WSW 16:03:32 10° S
Meteor 2-15 Rocket 4.5 15:57:48 29° NNW 16:01:10 82° W 16:07:26 10° S
Meteor 1-16 Rocket 4.1 16:03:55 32° NNW 16:06:31 88° WSW 16:11:59 10° SSE
Cosmos 2123 Rocket 4.0 16:00:58 10° S 16:07:20 83° W 16:10:55 28° N
Cosmos 1933 Rocket 3.6 16:05:50 37° NNW 16:07:35 76° W 16:12:06 10° S
MSX 3.9 16:04:11 24° NNE 16:07:50 82° ESE 16:13:43 10° SSW
Cosmos 1340 Rocket 4.3 16:06:32 21° NE 16:08:00 27° E 16:11:17 10° SE
ATLAS 5 CENTAUR R/B 3.2 16:05:04 10° WSW 16:09:18 22° WNW 16:10:05 22° NW
ALOS 2 2.6 16:08:35 10° SSE 16:13:05 88° WSW 16:14:56 35° NNW
CZ-2D R/B 3.6 16:08:41 10° NE 16:13:34 34° ESE 16:18:31 10° S
Cosmos 2292 Rocket 3.6 16:15:24 10° S 16:19:31 81° W 16:21:57 31° N
Cosmos 1606 3.8 16:21:08 18° E 16:21:26 18° E 16:23:19 10° SE
Cosmos 1844 Rocket 4.4 16:18:39 10° WNW 16:23:26 27° SW 16:28:13 10° SSE
Cosmos 1953 3.6 16:22:27 22° WNW 16:23:50 28° WSW 16:27:10 10° SSW
ACS3 Solar Sail 3.7 16:20:28 10° ENE 16:25:26 26° ESE 16:30:19 10° S
Cosmos 921 Rocket 2.8 16:23:57 37° NNW 16:25:35 86° WSW 16:29:49 10° SSE
MetOp-A 3.4 16:25:50 10° S 16:29:42 67° WSW 16:31:08 36° NW
Cosmos 1869 Rocket 3.8 16:30:32 32° NNW 16:32:29 62° WSW 16:36:57 10° S
ARGOS Delta rocket 3.9 16:33:25 28° N 16:35:58 76° W 16:41:08 10° SSW
Meteor 1-21 Rocket 4.3 16:30:50 10° S 16:36:49 84° ESE 16:40:52 21° NNE
In-Cosmos 22 Rocket 4.3 16:31:28 10° SSW 16:37:22 82° W 16:41:09 23° N
CZ-2C R/B 3.7 16:33:25 10° SSE 16:38:33 39° E 16:42:21 17° NNE
COSMOS 2441 4.4 16:39:18 20° NNE 16:42:37 77° ESE 16:47:30 10° SSW
USA 215 3.7 16:36:30 10° ESE 16:42:48 45° NE 16:46:33 23° NNW
Envisat 4.0 16:38:37 10° NE 16:43:28 45° ESE 16:48:21 10° S
Cosmos 1733 Rocket 3.2 16:42:37 29° N 16:44:52 74° E 16:49:21 10° SSE
Cosmos 1833 Rocket 3.0 16:40:44 10° SW 16:46:08 47° WNW 16:49:03 25° NNW
ADEOS II 3.1 16:42:53 10° NE 16:47:52 45° ESE 16:52:54 10° S
USA 276 2.1 16:50:32 13° W 16:52:56 66° S 16:55:54 10° E
Resurs 1-4 Rocket 2.3 16:48:29 14° NNE 16:53:03 72° ESE 16:58:23 10° SSW
ARIANE 5 R/B 4.1 16:49:14 10° S 16:53:05 28° WSW 16:55:44 16° WNW
Cosmos 1943 Rocket 2.4 16:52:03 24° N 16:55:25 60° ENE 17:01:02 10° SE
SJ 16-02 3.6 16:53:12 10° NE 16:55:56 17° E 16:58:43 10° SE
Cosmos 2082 Rocket 2.9 16:50:18 10° SSW 16:56:00 56° ESE 17:01:37 10° NE
Cosmos 2242 Rocket 3.7 16:52:03 10° SSW 16:56:28 64° W 16:58:46 27° N
Cosmos 2278 Rocket 2.5 16:56:55 23° N 17:00:27 62° ENE 17:06:07 10° SSE
Timation 1 Rocket 4.3 16:56:46 10° SSW 17:02:51 83° WNW 17:08:52 10° NNE
IDEFIX/ARIANE 42P 3.4 17:02:17 23° NW 17:04:50 36° W 17:09:44 10° SSW
FENGYUN 3A 4.0 17:02:47 23° NNW 17:06:01 52° W 17:11:21 10° SSW
SeaSat 1 2.7 17:05:12 21° N 17:08:20 51° WNW 17:13:12 10° SW
BlueWalker 3 2.7 17:05:05 10° W 17:08:40 49° SSW 17:12:15 10° ESE
Cosmos 1763 Rocket 3.5 17:05:44 10° SSW 17:11:03 85° ESE 17:16:22 10° NNE
Cosmos 44 Rocket 4.2 17:09:10 14° WNW 17:13:11 43° SW 17:17:50 10° SSE
Cosmos 1140 Rocket 3.7 17:12:18 22° NW 17:15:41 68° WSW 17:20:59 10° SSE
RESURS DK-1 3.6 17:13:40 10° SW 17:16:51 23° WNW 17:17:36 21° NW
Cosmos 1674 Rocket 3.6 17:12:37 10° SSW 17:17:10 82° W 17:20:25 18° N
NPP 4.5 17:14:37 21° NNW 17:17:29 35° W 17:22:30 10° SSW
USA 267 3.4 17:11:18 10° ENE 17:17:53 80° SSE 17:24:32 10° SW
ALOS 2.3 17:14:36 13° NNE 17:18:46 80° ESE 17:23:26 10° SSW
ISS -3.8 17:18:15 10° WSW 17:21:40 67° NNW 17:25:05 10° ENE
ADEOS Rocket 3.4 17:17:11 10° NNE 17:23:57 71° ESE 17:30:05 10° S
Cosmos 1378 Rocket 4.0 17:23:55 10° SSW 17:28:06 45° W 17:30:37 21° NNW
Cosmos 1025 Rocket 3.0 17:23:47 10° S 17:28:15 84° W 17:31:53 15° N
Timation 2 Rocket 3.9 17:26:02 19° NNW 17:30:30 83° WSW 17:36:46 10° SSE
DELTA 2 R/B (1) 4.4 17:26:51 12° WNW 17:30:59 27° NNW 17:35:36 10° NE
USA 305 3.2 17:30:06 23° N 17:31:03 29° NE 17:34:13 10° ESE
H-2A R/B 1.9 17:30:18 11° NNE 17:34:11 85° ESE 17:38:16 10° SSW
H-2A R/B 2.5 17:33:22 10° NNE 17:38:44 71° ESE 17:44:14 10° S
Cosmos 540 Rocket 3.5 17:38:03 10° SSW 17:43:12 62° WNW 17:48:18 10° N
Cosmos 1340 Rocket 4.1 17:41:16 16° WNW 17:43:32 27° WSW 17:46:55 10° S
Cosmos 407 Rocket 3.6 17:40:53 18° NNW 17:44:58 73° WSW 17:50:24 10° SSE
MOS 1-B Rocket 4.5 17:43:27 10° NNE 17:49:11 59° ESE 17:54:46 10° S
Cosmos 2173 Rocket 4.1 17:44:15 13° N 17:50:00 84° W 17:56:30 10° S
Cosmos 1441 Rocket 3.7 17:47:37 10° SSW 17:50:46 33° W 17:52:41 19° NNW
Cosmos 2100 Rocket 4.1 17:46:12 14° NNW 17:51:54 79° W 17:58:23 10° S
Cosmos 1606 3.9 17:51:29 13° W 17:52:26 15° WSW 17:54:04 10° SSW
CZ-2D R/B 2.7 17:49:02 14° NNW 17:53:25 43° W 17:58:41 10° SSW
H-2A R/B 4.4 17:51:27 10° SE 17:54:38 23° E 17:57:50 10° NNE
Cosmos 1190 Rocket 4.2 17:52:07 13° NNW 17:56:42 71° ENE 18:01:58 10° SSE
Cosmos 1954 Rocket 4.4 17:53:19 12° N 17:58:11 60° ENE 18:03:28 10° SSE
Cosmos 1300 Rocket 3.7 17:55:51 11° N 18:00:01 79° E 18:04:31 10° SSE
AQUA 3.8 17:57:12 10° NNE 18:01:57 88° WNW 18:06:44 10° SSW
Cosmos 1725 Rocket 4.1 17:59:49 10° N 18:06:03 85° E 18:12:21 10° S
ACS3 Solar Sail 1.9 18:01:35 10° N 18:07:47 68° W 18:13:54 10° SSW
Cosmos 2221 Rocket 4.3 18:04:52 10° SSW 18:09:09 39° W 18:13:10 11° NNW
ATLAS 2AS CENTAUR R/B 3.2 18:06:19 10° SW 18:13:47 77° SE 18:21:13 10° NE
Cosmos 841 Rocket 3.7 18:08:35 10° SSW 18:13:49 79° ESE 18:19:00 10° NNE
Iridium 4 Rocket 4.1 18:09:17 10° N 18:15:01 71° E 18:20:55 10° S
CZ-2C R/B 3.6 18:13:44 10° S 18:18:44 37° WSW 18:23:46 10° NW
ASTEX 1 4.2 18:15:03 10° SSE 18:19:57 53° E 18:24:46 10° N
Envisat 4.0 18:18:21 11° NNW 18:22:34 28° W 18:26:59 10° SW
Cosmos 1812 3.0 18:23:09 10° N 18:25:56 45° E 18:28:46 10° SSE
Cosmos 1459 Rocket 4.4 18:20:07 10° NNW 18:25:58 50° WSW 18:31:58 10° S
USA 215 3.5 18:19:28 10° SE 18:26:04 74° SSW 18:32:37 10° WNW
USA 276 1.9 18:23:14 10° W 18:26:06 59° NNW 18:29:08 10° ENE
Cosmos 220 Rocket 3.8 18:23:15 10° SSW 18:27:25 88° WNW 18:31:29 10° NNE
ADEOS II 3.0 18:22:59 10° NNW 18:27:34 30° W 18:32:13 10° SSW
Cosmos 1656 Rocket 3.7 18:22:40 10° NNW 18:28:09 80° ENE 18:33:39 10° SSE
COSMOS 2406 3.3 18:24:39 10° SW 18:30:21 59° WNW 18:35:57 10° N
Cosmos 1782 Rocket 3.8 18:27:49 10° NNW 18:32:10 56° WSW 18:36:36 10° S
Cosmos 2251 Rocket 3.9 18:27:22 10° NW 18:32:32 55° WSW 18:37:45 10° SSE
Cosmos 2016 Rocket 4.1 18:27:07 10° NNW 18:33:13 68° WSW 18:39:25 10° S
Resurs 1-4 Rocket 3.6 18:29:42 10° NW 18:33:22 19° W 18:37:04 10° SW
SJ 16-02 1.6 18:29:20 10° NW 18:33:35 58° WSW 18:37:55 10° SSE
Cosmos 2058 3.8 18:30:28 10° S 18:34:23 49° ESE 18:38:14 10° NNE
PAYLOAD A 4.3 18:31:26 10° NNE 18:36:09 68° ESE 18:41:04 10° S
Cosmos 2369 Rocket 2.9 18:31:24 10° N 18:36:51 51° ENE 18:42:21 10° SE
Cosmos 1869 3.1 18:34:15 10° N 18:37:56 84° W 18:41:41 10° S
Cosmos 968 Rocket 4.2 18:33:07 10° N 18:38:04 50° ENE 18:43:04 10° SSE
Cosmos 1943 Rocket 3.5 18:34:39 10° WNW 18:39:33 29° SW 18:44:31 10° SSE
Cosmos 2082 Rocket 3.2 18:34:54 10° SW 18:39:44 28° WNW 18:44:31 10° NNW
ARGOS 3.2 18:35:55 10° N 18:41:18 76° WNW 18:46:46 10° SSW
Cosmos 371 Rocket 3.5 18:38:41 10° NW 18:43:27 63° WSW 18:48:16 10° SSE
Cosmos 1975 Rocket 3.3 18:39:40 10° SSW 18:43:58 52° W 18:48:09 10° N
SL-08 RB Rocket 4.0 18:39:49 10° NNE 18:44:18 74° ESE 18:48:54 10° S
Cosmos 2278 Rocket 3.6 18:40:00 10° WNW 18:44:56 29° SW 18:49:56 10° SSE
